Terminal Aerodrome Forecast
Issued by NWS Wilmington, NC

Home | Current Version | Previous Version | Text Only | Print | Product List | Glossary On
Versions: 1 2 3 4 5 6 7 8 9 10 11 12 13 14 15 16 17 18 19 20 21
751
FTUS42 KILM 080730 AAB
TAFILM
TAF AMD
KILM 080730Z 0808/0906 31008KT P6SM SKC
     FM081300 28008KT P6SM SKC
     FM081900 22013G19KT P6SM SCT120 OVC250
     FM082300 23013G20KT P6SM BKN100
      TEMPO 0823/0902 -SHRA BKN040 OVC080
     FM090200 26010G15KT P6SM BKN060=

USA.gov is the U.S. government's official web portal to all federal, state and local government web resources and services.